DECAYED

COSMOS 2251 DEB, 34300 (Decayed)

Orbit data source: Space-Track

COSMOS 2251 DEB, 34300 was space debris in LEO originally from a launch on Wed, 16 Jun 1993 UTC launched from the Plesetsk Missile And Space Complex (PKMTR). The debris from Iridium 33, an American commercial communications satellite, has been tracked extensively since its accidental collision with the defunct Russian satellite Cosmos 2251 in 2009. This event, occurring at high speed in low Earth orbit (LEO), generated thousands of pieces of space debris, significantly increasing the risk of further collisions. The Iridium 33 debris cloud has impacted space traffic management and orbital debris mitigation strategies, making it a subject of ongoing study in space situational awareness.

Not visible in the next 10 days
Identifier
34300, 1993-036MW
Orbit
Decayed
Country
Flag of CISCIS
Related business
Manufacturer
Unknown
Mission
Decayed spacecraft
Bus & Motor
Unknown
Mass
Unknown
Launch date (UTC)
1993-06-16 (32 years ago)
Launch vehicle
Unknown
Launch site
Plesetsk Missile And Space Complex (PKMTR)
Object type
Payload
Rocket body
Debris
Shape & HBR
Unknown shape, 0.1 m
Radar Cross Section
Small (<0.1 m²)

Expand to show TLE details & history
Last TLE update: 5 months ago

TLE from 5 months ago
0 COSMOS 2251 DEB
1 34300U 93036MW  25122.39432438  .18776983  18350-5  84411-2 0  9990
2 34300  73.9484 117.3165 0018136 236.9972 122.9535 16.21573596855143
Epoch: 2025-05-02T09:27Z
TLE epoch observation values (Epoch: 2025-05-02T09:27:49.626Z)
Latitude
-0.00006°
Longitude
114.80814°
Altitude
224.63 km
Speed
7.768 km/s
True Right ascension
07h 49m 15s
True Declination
0° 00' 00"
Sunlit
Object was in daylight at epoch
Visualization orbit readout
Latitude
Unknown
Longitude
Unknown
Altitude
Unknown
Speed
Unknown
Apparent Right ascension
Unknown
Apparent Declination
Unknown
Sunlit
N/A
Visualization observer readout
Local Sidereal Time
11:31:12
Azimuth
Unknown
Elevation
Unknown
Doppler factor
Unknown
Orbital elements
Apogee altitude
224.667 km
Perigee altitude
200.761 km
Semi-major axis
6,590.851 km
Eccentricity
0.00181
Inclination
73.9484°
RAAN
117.3165°
Arg. of periapsis
236.9972°
True anomaly
123.12767°
Mean anomaly
122.9535°
Eccentric anomaly
123.04061°
Mean motion
4.05631 °/min
Orbital period
88.75 mins
BSTAR
0.0084411
Loading maneuver chart data...
Computing Atmospheric mass density...

Documentation

Showing up to 5 results
|